Location: ??
(34.7707°N, 135.6540°E)
Time: 05:49:22
(UTC+00:00)

Cosmos 1867 - Pass Details

Date: 09 April 2020
Orbit: 778 x 798 km, 65.0° (Epoch: 05 June)

Event Time Altitude Azimuth Distance (km) Brightness Sun altitude
Exits shadow 18:33:03 61° 220° (SW) 891 3.5 -23.8°
Maximum altitude 18:34:01 84° 299° (WNW) 799 3.4 -23.7°
Drops below altitude 10° 18:39:28 10° 27° (NNE) 2,365 6.8 -22.7°
Sets 18:41:54 0° 29° (NNE) 3,300 7.7 -22.2°
